Location: Asheville, NC
(35.6000°N, 82.5500°W)
Time: 03:56:44
(UTC-04:00)

Tiangong 2 - Pass Details

Date: 12 October 2017
Orbit: 388 x 392 km, 42.8° (Epoch: 16 October)

Event Time Altitude Azimuth Distance (km) Brightness Sun altitude
Exits shadow 06:48:31 12° 304° (NW) 1,327 3.3 -10.1°
Maximum altitude 06:50:49 22° 355° (N) 903 2.9 -9.6°
Drops below altitude 10° 06:53:25 10° 49° (NE) 1,419 4.7 -9.1°
Sets 06:55:48 0° 65° (ENE) 2,276 6.2 -8.6°
